Regional Weather Roundup
Issued by NWS

Home | Current Version | Previous Version | Graphics & Text | Print | Product List | Glossary On
Versions: 1 2 3 4 5 6 7 8 9 10 11 12 13 14 15 16 17 18 19 20 21 22 23 24 25 26 27 28 29 30 31 32 33 34 35 36 37 38 39 40 41 42 43 44 45 46 47 48 49 50
000
ASUS43 KMKX 250000
RWRWI

WISCONSIN REGIONAL WEATHER ROUNDUP
NATIONAL WEATHER SERVICE MILWAUKEE/SULLIVAN WI
700 PM CDT SAT JUN 24 2017

NOTE: "FAIR" INDICATES FEW OR NO CLOUDS BELOW 12,000 FEET WITH NO
SIGNIFICANT WEATHER AND/OR OBSTRUCTIONS TO VISIBILITY.

WIZ001-002-006>008-014>016-023>028-250100-
NORTHWEST WISCONSIN

CITY           SKY/WX    TMP DP  RH WIND       PRES   REMARKS
SUPERIOR ARPT  NOT AVBL
ASHLAND        MOSUNNY   61  48  62 W8        29.95R
6HR MIN TEMP:  57; 6HR MAX TEMP:  61;

HAYWARD        LGT RAIN  57  49  74 CALM      29.97S
6HR MIN TEMP:  55; 6HR MAX TEMP:  63; 6HR PCP:  0.05;

SIREN          PTSUNNY   65  44  46 NW12      29.98S
CUMBERLAND     MOSUNNY   59  43  55 NW8       29.98S
RICE LAKE      SUNNY     63  44  50 W10       29.99S
CHETEK         SUNNY     61  47  60 W7        29.98R
LADYSMITH      PTSUNNY   62  46  56 W13       29.98R
EAU CLAIRE     NOT AVBL
MENOMONIE      PTSUNNY   60  46  59 W8        30.00S
6HR MIN TEMP:  55; 6HR MAX TEMP:  67;

NEW RICHMOND   SUNNY     63  41  44 W15G22    30.00S
OSCEOLA        MOSUNNY   64  42  44 W14       30.02S
$$

WIZ003>005-009-010-017-018-250100-
NORTH CENTRAL WISCONSIN

CITY           SKY/WX    TMP DP  RH WIND       PRES   REMARKS
MANITOWISH WTR CLOUDY    56  49  75 W9G16     29.94S
ARBOR VITAE    PTSUNNY   59  47  63 NW9G18    29.94R
WOODRUFF       PTSUNNY   59  47  63 NW9G18    29.94R
RHINELANDER    LGT RAIN  52  47  83 W9        29.95S
6HR MIN TEMP:  51; 6HR MAX TEMP:  62; 6HR PCP:  0.20;

EAGLE RIVER    PTSUNNY   57  50  78 W5        29.93S
LAND O LAKES   DRIZZLE   54  52  93 CALM      29.95S
6HR MIN TEMP:  53; 6HR MAX TEMP:  58;

PHILLIPS       PTSUNNY   55  48  78 NW8       29.96R
TOMAHAWK       NOT AVBL
MEDFORD        MOSUNNY   60  43  54 W13G20    29.96R
MERRILL        SUNNY     63  43  48 NW8G17    29.95S
6HR MIN TEMP:  58; 6HR MAX TEMP:  66;

$$

WIZ029-030-035-036-043>047-250100-
CENTRAL WISCONSIN

CITY           SKY/WX    TMP DP  RH WIND       PRES   REMARKS
WAUSAU         PTSUNNY   61  44  53 W10       29.93S
6HR MIN TEMP:  60; 6HR MAX TEMP:  67; 6HR PCP: TRACE;

MOSINEE        PTSUNNY   63  43  48 W10G18    29.96R
MARSHFIELD     LGT RAIN  57  48  72 NW8       29.96R
6HR MIN TEMP:  56; 6HR MAX TEMP:  66; 6HR PCP: TRACE;

STEVENS POINT  CLOUDY    63  40  43 W7G18     29.96R
WAUPACA        PTSUNNY   69  40  34 W15       29.95S
6HR MIN TEMP:  66; 6HR MAX TEMP:  71; 6HR PCP:  0.01;

WAUTOMA        CLOUDY    65  45  48 SW14G21   29.96F
6HR MIN TEMP:  65; 6HR MAX TEMP:  69;

WISC RAPIDS    CLOUDY    63  45  51 NW7       29.97S
6HR MIN TEMP:  63; 6HR MAX TEMP:  69;

CAMP DOUGLAS   RAIN      54  50  87 W18G31    30.04R FOG
                                      6HR PCP:  0.06;

$$

WIZ011>013-019>022-031-037>040-048>050-250100-
NORTHEAST WISCONSIN

CITY           SKY/WX    TMP DP  RH WIND       PRES   REMARKS
ANTIGO         MOSUNNY   60  43  53 W12G20    29.94S
SHAWANO        MOSUNNY   66  45  46 W10G21    29.92R
OCONTO         CLOUDY    64  54  72 E7G18     29.90R
STURGEON BAY     N/A     62  54  74 N9          N/A
6HR MIN TEMP:  60; 6HR MAX TEMP:  65;

GREEN BAY      MOSUNNY   67  46  47 W15       29.92R
6HR MIN TEMP:  66; 6HR MAX TEMP:  71;

MANITOWOC      NOT AVBL
APPLETON       PTSUNNY   64  39  39 W13       29.93R
CLINTONVILLE   MOSUNNY   64  41  42 W13G18    29.93R
OSHKOSH        SUNNY     66  42  41 W12G20    29.95R
6HR MIN TEMP:  65; 6HR MAX TEMP:  69;

$$

WIZ032>034-041-042-053>061-250100-
SOUTHWEST WISCONSIN

CITY           SKY/WX    TMP DP  RH WIND       PRES   REMARKS
LA CROSSE      MOSUNNY   60  51  72 SW9       30.03R
6HR MIN TEMP:  54; 6HR MAX TEMP:  74; 6HR PCP:  0.21;

SPARTA         RAIN      52  49  90 W9G18     30.06R
VIROQUA        CLOUDY    52  48  84 NW10G24   30.07R
BOSCOBEL       LGT RAIN  58  54  86 CALM      30.06R
6HR MIN TEMP:  56; 6HR MAX TEMP:  73; 6HR PCP:  0.09;

PRAIRIE DU CHI LGT RAIN  58  53  82 NW13G18   30.06R
PLATTEVILLE    PTSUNNY   57  54  92 N6        30.05S
$$

WIZ056-057-062-063-064-067-068-250100-
SOUTH CENTRAL WISCONSIN

CITY           SKY/WX    TMP DP  RH WIND       PRES   REMARKS
REEDSBURG      PTSUNNY   57  47  69 SW7       30.01F
BARABOO/DELLS  PTSUNNY   58  46  62 W7        30.00F
LONE ROCK      NOT AVBL
MINERAL POINT  PTSUNNY   55  54  94 SE3       30.03F
MADISON        LGT RAIN  55  51  86 S8        30.02R
6HR MIN TEMP:  55; 6HR MAX TEMP:  69; 6HR PCP:  0.03;

MIDDLETON      CLOUDY    55  51  86 W10       30.06R
WATERTOWN      PTSUNNY   66  44  45 W12G18    29.99R
MONROE         RAIN      55  50  82 NW20G55   30.08R
JANESVILLE     PTSUNNY   70  39  32 W15       30.01R
$$

WIZ051-052-058>065-066-070>072-250100-
SOUTHEAST WISCONSIN

CITY           SKY/WX    TMP DP  RH WIND       PRES   REMARKS
MILWAUKEE      MOSUNNY   71  42  35 W17G23    29.98R
6HR MIN TEMP:  69; 6HR MAX TEMP:  74;

WAUKESHA       MOSUNNY   64  39  39 W17G23    30.00R
MILWAUKEE/TIMM MOSUNNY   68  37  32 W16G25    29.98R
RACINE         SUNNY     70  41  34 W10G20    30.00R
6HR MIN TEMP:  70; 6HR MAX TEMP:  74;

KENOSHA        SUNNY     68  43  40 W14G23    29.99R
6HR MIN TEMP:  67; 6HR MAX TEMP:  73;

FOND DU LAC    MOSUNNY   66  41  40 W16G25    29.96R
6HR MIN TEMP:  65; 6HR MAX TEMP:  70;

SHEBOYGAN      SUNNY     67  44  43 W15G22    29.95R
6HR MIN TEMP:  67; 6HR MAX TEMP:  70;

WEST BEND      SUNNY     66  39  37 W16G23    29.97R
JUNEAU         MOSUNNY   65  42  43 W9G21     29.99R
$$

LSZ147-162-250100-
LAKE SUPERIOR

STATION/POSITION TIME  TEMP    WIND        PRES    WAVE
                       AIR SEA DIR/SP/G            HT/PER
                 (UTC) (F)     (DEG/KT/KT) (MB)    (FT/S)
W MID LAKE BUOY  2250   44 39  270/  4/  4 1013.3R   1/ 4
DEVILS ISLAND    2300   54     230/  8/ 10 1013.5F
SAXON HARBOR     2330   61     250/  3/  9 1013.5R
$$

LMZ867-665-643>646-250100-
LAKE MICHIGAN

STATION/POSITION TIME  TEMP    WIND        PRES    WAVE
                       AIR SEA DIR/SP/G            HT/PER
                 (UTC) (F)     (DEG/KT/KT) (MB)    (FT/S)
CHAMBERS ISLAND  2330   61     310/  9/ 12 1012.2S
S GREEN BAY BUOY 2330   63      60/  8/ 12 1012.5F
N MID LAKE BUOY  2250   58 58  290/ 10/ 12 1012.8F   1/ 3
NORTHPORT PIER   2340   61     310/  9/ 14 1012.5S
KEWAUNEE LAKESHO 2330   67     270/  8/ 15 1012.5R
SHEBOYGAN LAKESH 2300   67     270/ 18/ 23 1013.1F
PORT WASHINGTON  2340   70     290/ 10/ 22 1015.2R
ATWATER BUOY     2209   67 60  260/ 17/ 21 1014.3F
MILWAUKEE LAKESH 2330   69     300/ 14/ 18   N/A
S MID LAKE BUOY  2250   65 63  280/  6/  8 1014.6F   1/ 3
KENOSHA   LAKESH 2300   70     290/ 12/ 23 1014.6
$$

TC  - TEMPERATURE IN CELSIUS
VSB - VISIBILITY IN STATUTE MILES
WCI - WIND CHILL INDEX
HX  - HEAT INDEX





USA.gov is the U.S. government's official web portal to all federal, state and local government web resources and services.